Time,TemperatureF,DewpointF,PressureIn,WindDirection,WindDirectionDegrees,WindSpeedMPH,WindSpeedGustMPH,Humidity,HourlyPrecipIn,Conditions,Clouds,dailyrainin,SoftwareType,DateUTC
2013-05-16 00:03:00,35.0,16.0,-100.00,South,185,4.0,8.0,44,0.00,,,0.00,,2013-05-16 08:03:00,
2013-05-16 00:13:00,35.0,16.0,-100.00,South,185,4.0,8.0,44,0.00,,,0.00,,2013-05-16 08:13:00,
2013-05-16 00:23:00,34.0,16.0,-100.00,South,190,3.0,9.0,47,0.00,,,0.00,,2013-05-16 08:23:00,
2013-05-16 00:34:00,34.0,16.0,-100.00,South,190,3.0,9.0,47,0.00,,,0.00,,2013-05-16 08:34:00,
2013-05-16 00:44:00,34.0,16.0,-100.00,South,190,3.0,9.0,47,0.00,,,0.00,,2013-05-16 08:44:00,
2013-05-16 00:54:00,34.0,16.0,-100.00,SSW,210,5.0,9.0,48,0.00,,,0.00,,2013-05-16 08:54:00,
2013-05-16 01:04:00,34.0,16.0,-100.00,SSW,210,5.0,9.0,48,0.00,,,0.00,,2013-05-16 09:04:00,
2013-05-16 01:14:00,34.0,16.0,-100.00,SSW,210,5.0,9.0,48,0.00,,,0.00,,2013-05-16 09:14:00,
2013-05-16 01:24:00,34.0,16.0,-100.00,SSW,205,4.0,12.0,46,0.00,,,0.00,,2013-05-16 09:24:00,
2013-05-16 01:35:00,34.0,16.0,-100.00,SSW,205,4.0,12.0,46,0.00,,,0.00,,2013-05-16 09:35:00,
2013-05-16 01:45:00,34.0,16.0,-100.00,SSW,205,4.0,12.0,46,0.00,,,0.00,,2013-05-16 09:45:00,
2013-05-16 01:55:00,33.0,15.0,-100.00,SSW,200,6.0,13.0,47,0.00,,,0.00,,2013-05-16 09:55:00,
2013-05-16 02:04:00,33.0,15.0,-100.00,SSW,200,6.0,13.0,47,0.00,,,0.00,,2013-05-16 10:04:00,
2013-05-16 02:15:00,33.0,15.0,-100.00,SSW,200,6.0,13.0,47,0.00,,,0.00,,2013-05-16 10:15:00,
2013-05-16 02:24:00,33.0,16.0,-100.00,SW,215,6.0,12.0,48,0.00,,,0.00,,2013-05-16 10:24:00,
2013-05-16 02:35:00,33.0,16.0,-100.00,SW,215,6.0,12.0,48,0.00,,,0.00,,2013-05-16 10:35:00,
2013-05-16 02:45:00,33.0,16.0,-100.00,SW,215,6.0,12.0,48,0.00,,,0.00,,2013-05-16 10:45:00,
2013-05-16 02:56:00,32.0,16.0,-100.00,SW,230,4.0,9.0,49,0.00,,,0.00,,2013-05-16 10:56:00,
2013-05-16 03:05:00,32.0,16.0,-100.00,SW,230,4.0,9.0,49,0.00,,,0.00,,2013-05-16 11:05:00,
2013-05-16 03:14:00,32.0,16.0,-100.00,SW,230,4.0,9.0,49,0.00,,,0.00,,2013-05-16 11:14:00,
2013-05-16 03:25:00,32.0,16.0,-100.00,SSW,205,4.0,12.0,49,0.00,,,0.00,,2013-05-16 11:25:00,
2013-05-16 03:35:00,32.0,16.0,-100.00,SSW,205,4.0,12.0,49,0.00,,,0.00,,2013-05-16 11:35:00,
2013-05-16 03:46:00,32.0,16.0,-100.00,SSW,205,4.0,12.0,49,0.00,,,0.00,,2013-05-16 11:46:00,
2013-05-16 03:56:00,33.0,16.0,-100.00,South,180,4.0,11.0,49,0.00,,,0.00,,2013-05-16 11:56:00,
2013-05-16 04:06:00,33.0,16.0,-100.00,South,180,4.0,11.0,49,0.00,,,0.00,,2013-05-16 12:06:00,
2013-05-16 04:13:00,33.0,16.0,-100.00,South,180,4.0,11.0,49,0.00,,,0.00,,2013-05-16 12:13:00,
2013-05-16 04:23:00,32.0,15.0,-100.00,South,175,4.0,7.0,49,0.00,,,0.00,,2013-05-16 12:23:00,
2013-05-16 04:34:00,32.0,15.0,-100.00,South,175,4.0,7.0,49,0.00,,,0.00,,2013-05-16 12:34:00,
2013-05-16 04:45:00,32.0,15.0,-100.00,South,175,4.0,7.0,49,0.00,,,0.00,,2013-05-16 12:45:00,
2013-05-16 04:53:00,32.0,16.0,-100.00,South,185,3.0,6.0,50,0.00,,,0.00,,2013-05-16 12:53:00,
2013-05-16 05:04:00,32.0,16.0,-100.00,South,185,3.0,6.0,50,0.00,,,0.00,,2013-05-16 13:04:00,
2013-05-16 05:12:00,32.0,16.0,-100.00,South,185,3.0,6.0,50,0.00,,,0.00,,2013-05-16 13:12:00,
2013-05-16 05:26:00,32.0,17.0,-100.00,South,185,4.0,8.0,52,0.00,,,0.00,,2013-05-16 13:26:00,
2013-05-16 05:35:00,32.0,17.0,-100.00,South,185,4.0,8.0,52,0.00,,,0.00,,2013-05-16 13:35:00,
2013-05-16 05:43:00,32.0,17.0,-100.00,South,185,4.0,8.0,52,0.00,,,0.00,,2013-05-16 13:43:00,
2013-05-16 05:54:00,33.0,17.0,-100.00,South,170,4.0,7.0,53,0.00,,,0.00,,2013-05-16 13:54:00,
2013-05-16 06:05:00,33.0,17.0,-100.00,South,170,4.0,7.0,53,0.00,,,0.00,,2013-05-16 14:05:00,
2013-05-16 06:15:00,33.0,17.0,-100.00,South,170,4.0,7.0,53,0.00,,,0.00,,2013-05-16 14:15:00,
2013-05-16 06:23:00,32.0,17.0,-100.00,SSE,155,6.0,9.0,53,0.00,,,0.00,,2013-05-16 14:23:00,
2013-05-16 06:37:00,32.0,17.0,-100.00,SSE,155,6.0,9.0,53,0.00,,,0.00,,2013-05-16 14:37:00,
2013-05-16 06:47:00,32.0,17.0,-100.00,SSE,155,6.0,9.0,53,0.00,,,0.00,,2013-05-16 14:47:00,
2013-05-16 06:50:00,33.0,17.0,-100.00,SE,130,6.0,9.0,51,0.00,,,0.00,,2013-05-16 14:50:00,
2013-05-16 06:55:00,32.0,17.0,-100.00,SE,145,6.0,10.0,52,0.00,,,0.00,,2013-05-16 14:55:00,
2013-05-16 07:08:00,32.0,17.0,-100.00,SE,145,6.0,10.0,52,0.00,,,0.00,,2013-05-16 15:08:00,
2013-05-16 07:17:00,32.0,17.0,-100.00,SE,145,6.0,10.0,52,0.00,,,0.00,,2013-05-16 15:17:00,
2013-05-16 07:28:00,33.0,17.0,-100.00,SE,130,6.0,9.0,51,0.00,,,0.00,,2013-05-16 15:28:00,
2013-05-16 07:40:00,33.0,17.0,-100.00,SE,130,6.0,9.0,51,0.00,,,0.00,,2013-05-16 15:40:00,
2013-05-16 07:50:00,36.0,19.0,-100.00,SSE,165,3.0,9.0,49,0.00,,,0.00,,2013-05-16 15:50:00,
2013-05-16 08:00:00,35.0,18.0,-100.00,ESE,120,4.0,10.0,50,0.00,,,0.00,,2013-05-16 16:00:00,
2013-05-16 08:09:00,35.0,18.0,-100.00,ESE,120,4.0,10.0,50,0.00,,,0.00,,2013-05-16 16:09:00,
2013-05-16 08:19:00,35.0,18.0,-100.00,ESE,120,4.0,10.0,50,0.00,,,0.00,,2013-05-16 16:19:00,
2013-05-16 08:20:00,36.0,19.0,-100.00,SE,140,4.0,11.0,48,0.00,,,0.00,,2013-05-16 16:20:00,
2013-05-16 08:30:00,36.0,19.0,-100.00,SSE,165,3.0,9.0,49,0.00,,,0.00,,2013-05-16 16:30:00,
2013-05-16 08:40:00,36.0,-99.9,-100.00,SSE,165,3.0,9.0,49,0.00,,,0.00,,2013-05-16 16:40:00,
2013-05-16 08:50:00,38.0,-99.9,-100.00,East,100,4.0,9.0,48,0.00,,,0.00,,2013-05-16 16:50:00,
2013-05-16 09:00:00,36.0,19.0,-100.00,SE,140,4.0,11.0,48,0.00,,,0.00,,2013-05-16 17:00:00,
2013-05-16 09:10:00,36.0,19.0,-100.00,SE,140,4.0,11.0,48,0.00,,,0.00,,2013-05-16 17:10:00,
2013-05-16 09:20:00,39.0,21.0,-100.00,SE,130,2.0,10.0,47,0.00,,,0.00,,2013-05-16 17:20:00,
2013-05-16 09:30:00,38.0,21.0,-100.00,East,100,4.0,9.0,48,0.00,,,0.00,,2013-05-16 17:30:00,
2013-05-16 09:40:00,38.0,21.0,-100.00,East,100,4.0,9.0,48,0.00,,,0.00,,2013-05-16 17:40:00,
2013-05-16 09:50:00,-999.0,-99.9,-100.00,South,185,2.0,10.0,46,0.00,,,0.00,,2013-05-16 17:50:00,
2013-05-16 10:00:00,39.0,-99.9,-100.00,SE,130,2.0,10.0,47,0.00,,,0.00,,2013-05-16 18:00:00,
2013-05-16 10:10:00,39.0,21.0,-100.00,SE,130,2.0,10.0,47,0.00,,,0.00,,2013-05-16 18:10:00,
2013-05-16 10:20:00,43.0,23.0,-100.00,SSE,165,6.0,11.0,44,0.00,,,0.00,,2013-05-16 18:20:00,
2013-05-16 10:30:00,-999.0,-99.9,-100.00,South,185,2.0,10.0,46,0.00,,,0.00,,2013-05-16 18:30:00,
2013-05-16 10:40:00,-999.0,-99.9,-100.00,South,185,2.0,10.0,46,0.00,,,0.00,,2013-05-16 18:40:00,
2013-05-16 10:50:00,-999.0,-99.9,-100.00,South,175,6.0,10.0,42,0.00,,,0.00,,2013-05-16 18:50:00,
2013-05-16 11:00:00,-999.0,-99.9,-100.00,SSE,165,6.0,11.0,44,0.00,,,0.00,,2013-05-16 19:00:00,
2013-05-16 11:10:00,43.0,23.0,-100.00,SSE,165,6.0,11.0,44,0.00,,,0.00,,2013-05-16 19:10:00,
2013-05-16 11:20:00,45.0,-99.9,-100.00,SSE,160,6.0,11.0,40,0.00,,,0.00,,2013-05-16 19:20:00,
2013-05-16 11:30:00,43.0,22.0,-100.00,South,175,6.0,10.0,42,0.00,,,0.00,,2013-05-16 19:30:00,
2013-05-16 11:40:00,43.0,-99.9,-100.00,South,175,6.0,10.0,42,0.00,,,0.00,,2013-05-16 19:40:00,
2013-05-16 11:50:00,46.0,22.0,-100.00,SE,140,6.0,12.0,38,0.00,,,0.00,,2013-05-16 19:50:00,
2013-05-16 12:00:00,45.0,-99.9,-100.00,SSE,160,6.0,11.0,40,0.00,,,0.00,,2013-05-16 20:00:00,
2013-05-16 12:10:00,-999.0,-99.9,-100.00,SSE,160,6.0,11.0,40,0.00,,,0.00,,2013-05-16 20:10:00,
2013-05-16 12:20:00,44.0,-99.9,-100.00,South,170,5.0,14.0,39,0.00,,,0.00,,2013-05-16 20:20:00,
2013-05-16 12:30:00,46.0,22.0,-100.00,SE,140,6.0,12.0,38,0.00,,,0.00,,2013-05-16 20:30:00,
2013-05-16 12:40:00,-999.0,-99.9,-100.00,SE,140,6.0,12.0,38,0.00,,,0.00,,2013-05-16 20:40:00,
2013-05-16 13:00:00,44.0,22.0,-100.00,South,170,5.0,14.0,39,0.00,,,0.00,,2013-05-16 21:00:00,
2013-05-16 13:10:00,44.0,-99.9,-100.00,South,170,5.0,14.0,39,0.00,,,0.00,,2013-05-16 21:10:00,
2013-05-16 13:20:00,47.0,22.0,-100.00,South,170,5.0,9.0,36,0.00,,,0.00,,2013-05-16 21:20:00,
2013-05-16 13:29:00,45.0,22.0,-100.00,SSE,150,1.0,11.0,39,0.00,,,0.00,,2013-05-16 21:29:00,
2013-05-16 13:38:00,45.0,22.0,-100.00,SSE,150,1.0,11.0,39,0.00,,,0.00,,2013-05-16 21:38:00,
2013-05-16 13:50:00,48.0,22.0,-100.00,South,185,4.0,13.0,35,0.00,,,0.00,,2013-05-16 21:50:00,
2013-05-16 14:00:00,-999.0,-99.9,-100.00,South,170,5.0,9.0,36,0.00,,,0.00,,2013-05-16 22:00:00,
2013-05-16 14:08:00,47.0,22.0,-100.00,South,170,5.0,9.0,36,0.00,,,0.00,,2013-05-16 22:08:00,
2013-05-16 14:30:00,48.0,22.0,-100.00,South,185,4.0,13.0,35,0.00,,,0.00,,2013-05-16 22:30:00,
2013-05-16 14:40:00,48.0,22.0,-100.00,South,185,4.0,13.0,35,0.00,,,0.00,,2013-05-16 22:40:00,
2013-05-16 15:00:00,47.0,21.0,-100.00,SSE,160,5.0,12.0,34,0.00,,,0.00,,2013-05-16 23:00:00,
2013-05-16 15:06:00,47.0,21.0,-100.00,SSE,160,5.0,12.0,34,0.00,,,0.00,,2013-05-16 23:06:00,
2013-05-16 15:16:00,47.0,21.0,-100.00,SSE,160,5.0,12.0,34,0.00,,,0.00,,2013-05-16 23:16:00,
2013-05-16 15:24:00,47.0,20.0,-100.00,SSE,160,6.0,11.0,35,0.00,,,0.00,,2013-05-16 23:24:00,
2013-05-16 15:35:00,47.0,20.0,-100.00,SSE,160,6.0,11.0,35,0.00,,,0.00,,2013-05-16 23:35:00,
2013-05-16 15:45:00,47.0,20.0,-100.00,SSE,160,6.0,11.0,35,0.00,,,0.00,,2013-05-16 23:45:00,
2013-05-16 15:54:00,45.0,19.0,-100.00,South,175,7.0,14.0,35,0.00,,,0.00,,2013-05-16 23:54:00,
2013-05-16 16:02:00,45.0,19.0,-100.00,South,175,7.0,14.0,35,0.00,,,0.00,,2013-05-17 00:02:00,
2013-05-16 16:13:00,45.0,19.0,-100.00,South,175,7.0,14.0,35,0.00,,,0.00,,2013-05-17 00:13:00,
2013-05-16 16:22:00,45.0,20.0,-100.00,SSE,160,6.0,11.0,35,0.00,,,0.00,,2013-05-17 00:22:00,
2013-05-16 16:33:00,45.0,20.0,-100.00,SSE,160,6.0,11.0,35,0.00,,,0.00,,2013-05-17 00:33:00,
2013-05-16 16:43:00,45.0,20.0,-100.00,SSE,160,6.0,11.0,35,0.00,,,0.00,,2013-05-17 00:43:00,
2013-05-16 16:52:00,45.0,20.0,-100.00,South,180,4.0,11.0,35,0.00,,,0.00,,2013-05-17 00:52:00,
2013-05-16 17:03:00,45.0,20.0,-100.00,South,180,4.0,11.0,35,0.00,,,0.00,,2013-05-17 01:03:00,
2013-05-16 17:12:00,45.0,20.0,-100.00,South,180,4.0,11.0,35,0.00,,,0.00,,2013-05-17 01:12:00,
2013-05-16 17:23:00,45.0,19.0,-100.00,SSW,205,4.0,11.0,35,0.00,,,0.00,,2013-05-17 01:23:00,
2013-05-16 17:32:00,45.0,19.0,-100.00,SSW,205,4.0,11.0,35,0.00,,,0.00,,2013-05-17 01:32:00,
2013-05-16 17:43:00,45.0,19.0,-100.00,SSW,205,4.0,11.0,35,0.00,,,0.00,,2013-05-17 01:43:00,
2013-05-16 17:52:00,44.0,19.0,-100.00,SSW,200,3.0,9.0,35,0.00,,,0.00,,2013-05-17 01:52:00,
2013-05-16 18:02:00,44.0,19.0,-100.00,SSW,200,3.0,9.0,35,0.00,,,0.00,,2013-05-17 02:02:00,
2013-05-16 18:11:00,44.0,19.0,-100.00,SSW,200,3.0,9.0,35,0.00,,,0.00,,2013-05-17 02:11:00,
2013-05-16 18:21:00,44.0,19.0,-100.00,South,180,3.0,5.0,36,0.00,,,0.00,,2013-05-17 02:21:00,
2013-05-16 18:32:00,44.0,19.0,-100.00,South,180,3.0,5.0,36,0.00,,,0.00,,2013-05-17 02:32:00,
2013-05-16 18:42:00,44.0,19.0,-100.00,South,180,3.0,5.0,36,0.00,,,0.00,,2013-05-17 02:42:00,
2013-05-16 18:52:00,44.0,19.0,-100.00,South,190,1.0,6.0,36,0.00,,,0.00,,2013-05-17 02:52:00,
2013-05-16 19:01:00,44.0,19.0,-100.00,South,190,1.0,6.0,36,0.00,,,0.00,,2013-05-17 03:01:00,
2013-05-16 19:11:00,44.0,19.0,-100.00,South,190,1.0,6.0,36,0.00,,,0.00,,2013-05-17 03:11:00,
2013-05-16 19:22:00,44.0,20.0,-100.00,South,180,2.0,6.0,38,0.00,,,0.00,,2013-05-17 03:22:00,
2013-05-16 19:34:00,44.0,20.0,-100.00,South,180,2.0,6.0,38,0.00,,,0.00,,2013-05-17 03:34:00,
2013-05-16 19:43:00,44.0,20.0,-100.00,South,180,2.0,6.0,38,0.00,,,0.00,,2013-05-17 03:43:00,
2013-05-16 19:53:00,43.0,21.0,-100.00,SSE,165,2.0,6.0,40,0.00,,,0.00,,2013-05-17 03:53:00,
2013-05-16 20:02:00,43.0,21.0,-100.00,SSE,165,2.0,6.0,40,0.00,,,0.00,,2013-05-17 04:02:00,
2013-05-16 20:13:00,43.0,21.0,-100.00,SSE,165,2.0,6.0,40,0.00,,,0.00,,2013-05-17 04:13:00,
2013-05-16 20:23:00,43.0,21.0,-100.00,SSW,205,2.0,4.0,41,0.00,,,0.00,,2013-05-17 04:23:00,
2013-05-16 20:33:00,43.0,21.0,-100.00,SSW,205,2.0,4.0,41,0.00,,,0.00,,2013-05-17 04:33:00,
2013-05-16 20:43:00,43.0,21.0,-100.00,SSW,205,2.0,4.0,41,0.00,,,0.00,,2013-05-17 04:43:00,
2013-05-16 20:53:00,42.0,22.0,-100.00,SSW,205,1.0,4.0,43,0.00,,,0.00,,2013-05-17 04:53:00,
2013-05-16 21:02:00,42.0,22.0,-100.00,SSW,205,1.0,4.0,43,0.00,,,0.00,,2013-05-17 05:02:00,
2013-05-16 21:13:00,42.0,22.0,-100.00,SSW,205,1.0,4.0,43,0.00,,,0.00,,2013-05-17 05:13:00,
2013-05-16 21:21:00,42.0,22.0,-100.00,South,185,2.0,4.0,44,0.00,,,0.00,,2013-05-17 05:21:00,
2013-05-16 21:32:00,42.0,22.0,-100.00,South,185,2.0,4.0,44,0.00,,,0.00,,2013-05-17 05:32:00,
2013-05-16 21:42:00,42.0,22.0,-100.00,South,185,2.0,4.0,44,0.00,,,0.00,,2013-05-17 05:42:00,
2013-05-16 21:52:00,41.0,22.0,-100.00,South,175,1.0,5.0,46,0.00,,,0.00,,2013-05-17 05:52:00,
2013-05-16 22:01:00,41.0,22.0,-100.00,South,175,1.0,5.0,46,0.00,,,0.00,,2013-05-17 06:01:00,
2013-05-16 22:11:00,41.0,22.0,-100.00,South,175,1.0,5.0,46,0.00,,,0.00,,2013-05-17 06:11:00,
2013-05-16 22:21:00,41.0,22.0,-100.00,SSW,195,2.0,6.0,47,0.00,,,0.00,,2013-05-17 06:21:00,
2013-05-16 22:32:00,41.0,22.0,-100.00,SSW,195,2.0,6.0,47,0.00,,,0.00,,2013-05-17 06:32:00,
2013-05-16 22:42:00,41.0,22.0,-100.00,SSW,195,2.0,6.0,47,0.00,,,0.00,,2013-05-17 06:42:00,
2013-05-16 22:51:00,40.0,23.0,-100.00,South,175,2.0,6.0,49,0.00,,,0.00,,2013-05-17 06:51:00,
2013-05-16 23:02:00,40.0,23.0,-100.00,South,175,2.0,6.0,49,0.00,,,0.00,,2013-05-17 07:02:00,
2013-05-16 23:11:00,40.0,23.0,-100.00,South,175,2.0,6.0,49,0.00,,,0.00,,2013-05-17 07:11:00,
2013-05-16 23:21:00,40.0,23.0,-100.00,South,180,1.0,4.0,50,0.00,,,0.00,,2013-05-17 07:21:00,
2013-05-16 23:32:00,40.0,23.0,-100.00,South,180,1.0,4.0,50,0.00,,,0.00,,2013-05-17 07:32:00,
2013-05-16 23:43:00,40.0,23.0,-100.00,South,180,1.0,4.0,50,0.00,,,0.00,,2013-05-17 07:43:00,
2013-05-16 23:53:00,40.0,23.0,-100.00,SW,220,1.0,2.0,51,0.00,,,0.00,,2013-05-17 07:53:00,